TimeEST,TemperatureF,Dew PointF,Humidity,Sea Level PressureIn,VisibilityMPH,Wind Direction,Wind SpeedMPH,Gust SpeedMPH,PrecipitationIn,Events,Conditions,WindDirDegrees,DateUTC
12:53 AM,28.9,24.1,82,30.53,10.0,Calm,Calm,-,N/A,,Clear,0,2012-11-14 05:53:00
1:53 AM,27.0,24.1,89,30.53,10.0,Calm,Calm,-,N/A,,Clear,0,2012-11-14 06:53:00
2:53 AM,28.9,24.1,82,30.53,10.0,Calm,Calm,-,N/A,,Clear,0,2012-11-14 07:53:00
3:53 AM,28.0,25.0,88,30.54,9.0,Calm,Calm,-,N/A,,Clear,0,2012-11-14 08:53:00
4:53 AM,27.0,24.1,89,30.55,8.0,Calm,Calm,-,N/A,,Clear,0,2012-11-14 09:53:00
5:53 AM,27.0,23.0,85,30.56,7.0,East,3.5,-,N/A,,Clear,80,2012-11-14 10:53:00
6:53 AM,27.0,23.0,85,30.56,6.0,Calm,Calm,-,N/A,,Clear,0,2012-11-14 11:53:00
7:53 AM,26.1,24.1,92,30.58,5.0,Calm,Calm,-,N/A,,Clear,0,2012-11-14 12:53:00
8:53 AM,32.0,26.1,79,30.57,10.0,East,4.6,-,N/A,,Clear,90,2012-11-14 13:53:00
9:53 AM,35.1,25.0,67,30.57,10.0,East,5.8,-,N/A,,Clear,100,2012-11-14 14:53:00
10:53 AM,37.0,24.1,59,30.57,10.0,East,9.2,-,N/A,,Clear,100,2012-11-14 15:53:00
11:53 AM,39.0,25.0,57,30.54,10.0,East,8.1,-,N/A,,Partly Cloudy,100,2012-11-14 16:53:00
12:53 PM,39.0,26.1,60,30.52,10.0,East,9.2,-,N/A,,Scattered Clouds,90,2012-11-14 17:53:00
1:53 PM,39.0,25.0,57,30.51,10.0,East,3.5,-,N/A,,Clear,90,2012-11-14 18:53:00
2:53 PM,39.9,27.0,60,30.48,10.0,East,9.2,-,N/A,,Scattered Clouds,90,2012-11-14 19:53:00
3:53 PM,39.0,27.0,62,30.47,10.0,East,8.1,-,N/A,,Clear,80,2012-11-14 20:53:00
4:53 PM,39.0,28.0,65,30.46,10.0,NE,8.1,-,N/A,,Clear,50,2012-11-14 21:53:00
5:53 PM,36.0,27.0,70,30.47,10.0,NE,4.6,-,N/A,,Scattered Clouds,50,2012-11-14 22:53:00
6:53 PM,34.0,27.0,75,30.46,10.0,NE,6.9,-,N/A,,Clear,40,2012-11-14 23:53:00
7:53 PM,34.0,27.0,75,30.45,10.0,NE,5.8,-,N/A,,Clear,50,2012-11-15 00:53:00
8:53 PM,33.1,27.0,78,30.43,10.0,ENE,4.6,-,N/A,,Clear,70,2012-11-15 01:53:00
9:53 PM,33.1,27.0,78,30.44,10.0,NNE,4.6,-,N/A,,Clear,20,2012-11-15 02:53:00
10:53 PM,32.0,26.1,79,30.43,9.0,ENE,4.6,-,N/A,,Clear,70,2012-11-15 03:53:00
11:53 PM,30.9,27.0,85,30.41,9.0,East,5.8,-,N/A,,Clear,80,2012-11-15 04:53:00